Regional Weather Roundup
Issued by NWS

Home | Current Version | Previous Version | Graphics & Text | Print | Product List | Glossary On
Versions: 1 2 3 4 5 6 7 8 9 10 11 12 13 14 15 16 17 18 19 20 21 22 23 24 25 26 27 28 29 30 31 32 33 34 35 36 37 38 39 40 41 42 43 44 45 46 47 48 49 50
419
ASUS45 KTFX 261910
RWRMT
MONTANA REGIONAL WEATHER ROUNDUP
NATIONAL WEATHER SERVICE GREAT FALLS MT
100 PM MDT MON SEP 26 2016

NOTE: "FAIR" INDICATES FEW OR NO CLOUDS BELOW 12000 FEET WITH NO
SIGNIFICANT WEATHER AND/OR OBSTRUCTIONS TO VISIBILITY.

MTZ001>007-043-262000-
WEST OF THE DIVIDE

CITY           SKY/WX    TMP DP  RH WIND       PRES   REMARKS
KALISPELL      MOSUNNY   64  44  48 S5        30.30F
MISSOULA       MOSUNNY   60  45  57 SW3       30.34F
BUTTE          CLOUDY    66  38  35 NW3       30.40F
MULLAN PASS    SUNNY     60  44  55 VRB6      30.39F
ANACONDA         N/A     72  39  30 SE10      30.36F
DEER LODGE       N/A     66  43  42 CALM      30.39F
EUREKA           N/A     64  45  48 CALM      30.28F
HAMILTON         N/A     64  48  55 NW6       30.32F
LIBBY            N/A     61  45  55 W3        30.27F
PLAINS           N/A     66  46  48 CALM      30.27F
RONAN            N/A     67  49  52 W2        30.32F
$$

MTZ008-052>055-262000-
SOUTHWEST MONTANA

CITY           SKY/WX    TMP DP  RH WIND       PRES   REMARKS
BOZEMAN        SUNNY     69  44  40 CALM      30.37F
DILLON         SUNNY     65  40  39 W5        30.39F
W YELLOWSTONE  SUNNY     59  37  44 CALM      30.49F
ENNIS          SUNNY     68  37  32 VRB5      30.44F
THREE FORKS      N/A     67  67 100 CALM      30.31F
TWIN BRIDGES     N/A     65  42  43 S6        30.33
$$

MTZ009-010-012-014-046-048-049-054-262000-
EAST SLOPES AND CENTRAL MONTANA

CITY           SKY/WX    TMP DP  RH WIND       PRES   REMARKS
CUT BANK       MOSUNNY   74  36  25 W10       30.21F
GREAT FALLS    SUNNY     74  41  30 SW15      30.23F
MALMSTROM AFB  SUNNY     73  44  34 SW16G23   30.23F
HELENA         CLOUDY    69  44  40 E8        30.32F
CHOTEAU          N/A     77  36  22 W8        30.24F
CONRAD           N/A     74  43  32 S2        30.22F
$$

MTZ011-013-016-021-045-047-050-051-262000-
NORTH CENTRAL MONTANA

CITY           SKY/WX    TMP DP  RH WIND       PRES   REMARKS
HAVRE          MOSUNNY   68  46  45 SW13      30.20F
LEWISTOWN      CLOUDY    68  42  38 CALM      30.28F
N BAR RANCH      N/A     66  39  37 S3        30.31F
CHINOOK          N/A     70  45  40 W10       30.20F
$$

MTZ017>020-022>027-061-062-262000-
NORTHEAST MONTANA

CITY           SKY/WX    TMP DP  RH WIND       PRES   REMARKS
GLASGOW        SUNNY     67  43  41 W8        30.22F
JORDAN           N/A     71  44  37 W10G18    30.23F
SIDNEY         SUNNY     67  36  31 NW10      30.20F
WOLF POINT     SUNNY     68  38  33 SW12      30.21F
POPLAR           N/A     66  39  37 W8        30.20F
SCOBEY           N/A     68  34  28 W13       30.16
$$

MTZ028>42-056>058-262000-
SOUTHCENTRAL AND SOUTHEAST MONTANA

CITY           SKY/WX    TMP DP  RH WIND       PRES   REMARKS
BAKER          SUNNY     63  44  50 W12       30.25F
BILLINGS       MOSUNNY   67  43  41 SW13      30.30F
LIVINGSTON     SUNNY     73  41  31 W17       30.33F
MILES CITY     SUNNY     69  39  33 W8        30.25F
BIG TIMBER     SUNNY     72  43  35 W28G37    30.31F
EKALAKA          N/A     63  40  42 W15       30.22
FORSYTH          N/A     66  46  48 W9        30.26F
LAUREL           N/A     69  42  37 S8        30.26F
ROUNDUP          N/A     69  44  40 SW12      30.16F
$$

REGIONAL REPORTS...DAKOTAS

CITY           SKY/WX    TMP DP  RH WIND       PRES   REMARKS
WILLISTON      SUNNY     67  35  30 NW16G23   30.19F
MINOT          SUNNY     65  35  33 NW17G26   30.11F
DICKINSON      SUNNY     64  32  30 NW18G24   30.18F
CROSBY           N/A     64  32  29 NW15      30.18F
WATFORD CITY     N/A     64  36  34 NW12G18   30.19F
BISMARCK       SUNNY     67  34  29 NW17G26   30.14F
GRAND FORKS    MOSUNNY   62  40  44 NW28G36   29.92F
FARGO          SUNNY     65  31  28 NW29G38   29.94F
BUFFALO SD       N/A     66  43  43 NW22      30.16F
RAPID CITY     SUNNY     73  40  30 N23G30    30.23F
$$

REGIONAL REPORTS...WYOMING/IDAHO/WASHINGTON

CITY           SKY/WX    TMP DP  RH WIND       PRES   REMARKS
GILLETTE       MOSUNNY   66  45  46 NW12G20   30.33F
SHERIDAN       SUNNY     70  45  40 N6        30.32F
BUFFALO WY     SUNNY     66  39  37 VRB5      30.37F
CODY           SUNNY     67  41  38 CALM      30.37F
YELLOWSTONE LA   N/A     52  39  61 VRB3      30.55F
IDAHO FALLS    SUNNY     63  42  46 VRB3      30.43F
SALMON         CLOUDY    61  43  51 CALM      30.39F
BOISE          SUNNY     77  35  21 S13       30.30F
SPOKANE        MOSUNNY   67  45  45 NE9       30.22F
$$

REGIONAL REPORTS...ALBERTA

CITY           SKY/WX    TMP DP  RH WIND       PRES   REMARKS
EDMONTON       SUNNY     72  45  37 S13G18    29.98F
CALGARY        PTSUNNY   66  43  42 S9        30.08F
LETHBRIDGE     PTSUNNY   73  41  31 W23G29    30.13F
MEDICINE HAT   PTSUNNY   72  46  40 SW8       30.12F
$$

REGIONAL REPORTS...SASKATCHEWAN

CITY           SKY/WX    TMP DP  RH WIND       PRES   REMARKS
SWIFT CURRENT  SUNNY     64  37  36 W7        30.16F
REGINA         MOSUNNY   63  36  36 NW12G20   30.15F
SASKATOON      MOSUNNY   64  34  32 NW7       30.14F
$$




USA.gov is the U.S. government's official web portal to all federal, state and local government web resources and services.